IRNSS-1A

Last updated on Thu Sep 10 2026 00:02:57 GMT+0000 (Coordinated Universal Time)

1 39199U 13034A 26250.55391735 .00000072 00000+0 00000+0 0 9992 2 39199 35.9016 62.6919 0019888 178.0135 0.3810 1.00273138 48198
UTC large
Height (km)
Speed (km/s)
/
Latitude / Longitude
Inclination (degrees)
Orbital Period (minutes)
Azimuth
Elevation
Range (km)
Doppler Factor

Next 0 passes for location: London (51.5072 / 0.1276)

No passes found over London.
IRNSS-1A